Tracking 29892 objects as of 21-Nov-2024
HD Live streaming from Space Station
objects crossing your sky now

STARLINK-32489

Track STARLINK-32489 now!
10-day predictions
STARLINK-32489 is classified as:


NORAD ID: 61893
Int'l Code: 2024-204V
Perigee: 334.7 km
Apogee: 335.8 km
Inclination: 53.2 °
Period: 91.1 minutes
Semi major axis: 6706 km
RCS: Unknown
Launch date: November 9, 2024
Source: United States (US)
Launch site: AIR FORCE WESTERN TEST RANGE (AFWTR)
Your satellite tracking list
Your tracking list is empty




NASA's NSSDC Master Catalog

Two Line Element Set (TLE):
1 61893U 24204V   24325.91668981 -.01315720  00000-0 -76044-2 0  9997
2 61893  53.1644 173.1681 0000795  62.4341 333.7994 15.80831685  3073
Source of the keplerian elements: AFSPC